Theta_e
299 301 301 301 301 301 301 301 301 301 303 304 303 304 306 308 304 303 312 314 311 311 313 315 316 317 317 317 319 320 322 321 320 321 320 320 320 321 320 320 322 323 323 325 325 325 326 326 327 328 330 332 336 341 344 345 346 348 351 353 356 354 352 353 355 357 360 359 359 360 360 362 360 357 355 354 355 353 354 351 349 347 346 345 349 353 354
298 298 299 300 299 299 300 300 301 302 303 304 305 305 307 307 308 314 313 314 311 313 314 316 316 318 318 318 320 321 320 320 321 319 319 318 318 318 318 319 320 322 323 324 325 326 327 326 326 325 326 329 332 336 340 343 345 347 349 351 354 355 356 355 355 357 360 361 361 362 362 363 364 362 359 359 354 354 353 351 354 354 353 349 346 349 352
296 298 298 299 299 299 298 299 300 301 302 304 306 306 308 311 313 314 313 311 310 314 317 316 318 319 318 318 318 318 320 320 318 318 317 317 317 317 318 319 319 320 321 323 325 326 326 326 326 326 326 327 330 334 340 343 345 347 349 349 350 354 355 358 357 357 358 360 360 362 364 364 365 366 363 360 359 362 358 355 358 363 357 351 348 347 349
295 297 297 298 298 298 299 298 299 300 301 301 304 305 309 311 309 312 311 308 307 312 316 316 317 317 317 316 316 317 317 316 317 316 316 316 317 317 317 319 319 319 318 320 322 324 326 327 326 327 328 329 329 331 338 341 343 347 347 348 350 353 353 354 353 355 357 355 356 357 360 360 364 366 364 363 361 360 357 356 361 355 354 355 356 351 349
295 297 296 298 297 296 294 297 299 301 302 306 308 310 310 312 315 309 307 308 312 314 315 313 314 315 315 316 315 315 317 318 317 316 316 316 317 317 318 318 320 320 319 319 320 323 324 325 327 328 329 328 328 331 333 339 343 343 344 345 347 352 354 351 350 353 353 355 357 355 359 364 364 364 364 364 362 358 355 358 357 359 361 356 357 357 354
295 295 296 296 293 288 291 303 305 304 302 305 304 305 309 312 314 312 314 313 314 314 314 313 313 314 314 316 318 319 318 317 317 316 317 317 317 317 318 318 319 320 321 321 321 322 321 323 326 328 329 329 330 332 334 337 341 343 344 345 347 348 349 349 350 350 350 352 354 357 359 361 362 363 362 362 363 360 358 358 360 359 358 359 359 361 359
296 298 296 290 286 289 302 305 306 306 306 306 307 308 310 311 314 313 313 312 312 314 315 314 314 316 316 316 317 317 318 319 317 316 316 316 317 317 317 318 318 319 320 321 321 322 321 321 321 321 324 328 331 332 332 333 335 340 343 343 343 341 341 344 345 346 350 353 355 356 358 357 355 353 357 357 358 362 362 360 357 359 359 359 360 360 359
299 295 293 283 287 300 304 303 305 306 304 309 309 306 309 311 313 313 313 312 314 315 314 315 315 316 317 317 318 318 318 317 317 316 315 316 316 316 316 317 319 319 318 319 318 321 323 320 319 320 321 322 325 329 331 331 332 334 338 339 339 340 339 339 340 343 345 347 351 354 354 353 352 355 357 357 355 358 356 359 358 359 358 361 360 360 360
293 295 292 292 301 300 300 299 302 300 301 304 304 299 305 311 313 314 311 312 312 313 314 314 315 316 316 314 315 316 315 315 316 316 315 316 316 316 317 317 317 320 321 320 320 322 321 321 320 319 322 321 322 326 328 329 332 331 332 333 334 337 338 337 338 341 344 346 348 351 355 353 350 352 353 354 356 358 357 354 355 353 354 356 362 360 359
298 294 291 291 292 287 297 303 305 308 309 311 311 308 303 310 311 313 312 311 311 311 312 312 313 314 312 309 312 316 315 315 314 316 316 316 317 316 317 318 318 320 320 320 321 321 321 321 322 321 321 322 322 324 325 326 330 332 330 330 331 333 334 334 337 339 342 343 344 348 351 351 350 352 355 355 354 358 352 352 353 356 357 357 358 359 360
297 294 290 289 287 293 303 305 306 309 309 308 310 304 299 308 311 312 310 310 311 311 311 312 313 311 307 308 312 314 315 314 315 314 315 315 315 316 316 316 317 317 319 320 321 321 321 320 321 322 322 321 320 321 323 322 324 327 330 330 330 331 331 334 336 338 340 341 342 343 345 348 353 350 350 353 356 359 356 356 356 358 357 357 357 360 358
295 295 290 289 296 295 305 307 307 305 308 303 303 290 292 307 310 311 311 310 310 311 312 312 311 309 307 307 310 312 313 313 314 315 314 314 315 316 316 317 318 318 320 320 319 318 317 321 322 322 321 321 322 322 322 321 322 323 326 328 331 332 333 333 335 337 338 342 342 343 344 346 351 356 354 352 353 357 357 358 355 356 356 358 358 358 357
294 293 293 296 300 306 307 306 307 307 306 303 294 288 302 310 311 311 312 311 311 312 311 311 308 312 312 311 312 312 313 312 313 314 314 314 314 315 315 316 318 317 317 317 317 317 319 322 321 321 321 320 322 324 324 322 322 322 324 327 328 331 334 333 334 336 337 337 338 342 345 346 349 350 349 353 353 356 355 354 354 354 355 356 357 358 359
293 295 292 292 297 305 307 308 308 308 303 292 292 305 312 312 311 311 311 310 311 312 312 310 311 312 312 312 311 311 310 311 312 312 313 314 314 315 317 317 317 316 315 317 317 317 319 319 320 320 321 321 323 324 324 324 325 324 325 325 325 328 332 332 334 336 338 339 339 339 344 347 348 346 348 350 349 357 357 355 352 352 356 356 355 356 360
296 295 293 290 286 302 309 307 305 307 299 302 308 311 312 313 311 310 310 311 311 311 309 310 310 310 309 309 309 310 311 311 311 312 313 314 314 314 315 316 316 315 315 315 316 317 317 318 318 319 319 321 322 323 324 326 326 328 327 325 326 327 329 330 332 333 336 337 339 340 343 342 342 344 346 347 349 351 353 353 352 351 355 356 357 357 359
290 291 288 290 300 305 311 306 300 303 306 311 312 310 307 311 310 309 308 308 310 309 309 308 309 309 309 309 310 311 311 312 312 312 314 315 315 314 314 314 315 315 315 316 316 317 317 319 319 320 320 320 322 323 324 328 328 329 328 327 327 326 327 327 328 330 331 335 338 340 341 342 342 343 343 347 349 351 352 353 352 352 353 356 355 354 355
297 294 298 303 307 309 310 308 308 309 312 313 311 310 310 308 308 311 309 310 310 310 309 309 309 308 309 309 310 309 309 310 311 312 313 313 313 314 314 314 316 316 315 315 315 316 317 319 320 321 320 320 321 321 324 326 327 327 326 327 327 327 327 328 328 329 330 333 335 337 338 338 341 342 343 346 347 352 354 353 354 355 356 356 356 354 354
305 306 306 309 308 308 308 309 311 311 311 311 310 307 307 309 312 310 309 311 311 311 311 308 308 308 309 310 309 309 310 311 312 314 314 314 315 314 314 315 316 315 315 316 315 314 316 317 318 320 320 320 320 321 323 325 326 326 326 326 327 327 327 327 328 329 328 327 328 331 332 336 338 340 339 341 343 348 350 350 352 352 350 353 354 354 354
298 293 306 304 305 307 307 308 310 312 312 311 310 309 309 311 311 311 312 311 312 311 311 310 309 309 309 308 309 311 312 312 313 313 313 314 315 314 314 315 315 315 315 314 315 315 315 317 317 318 319 320 321 323 323 323 323 324 325 324 324 326 328 328 330 330 329 326 325 327 328 327 329 335 340 343 345 347 350 349 350 350 352 352 352 352 353
299 299 304 306 308 308 309 308 308 308 310 311 311 311 312 312 313 313 313 312 311 311 310 310 309 309 310 310 310 311 312 312 312 313 313 314 314 315 315 315 316 315 314 314 314 315 315 317 318 319 319 320 321 322 323 323 323 324 324 325 323 325 326 327 327 328 327 329 328 325 326 328 328 333 337 341 342 342 344 346 348 346 348 348 350 351 352
301 305 306 307 309 308 308 308 309 310 311 311 311 311 311 312 312 312 313 313 312 311 310 311 310 310 310 310 311 310 311 311 312 312 312 313 313 313 313 314 314 314 314 314 315 315 315 317 318 319 320 321 322 323 323 324 325 324 323 324 325 326 325 326 326 329 328 327 327 327 327 330 334 338 337 337 336 337 342 346 345 341 339 340 344 350 354
298 300 304 306 301 301 306 307 309 309 310 311 311 311 310 311 311 312 311 312 312 311 312 311 310 309 310 311 311 310 310 311 312 312 312 312 311 312 312 313 313 313 314 314 314 315 315 317 317 318 318 319 321 321 323 324 324 323 323 323 323 322 323 323 323 324 324 324 325 327 327 328 330 331 334 322 331 337 336 333 325 319 317 334 338 340 340
299 307 309 308 308 307 308 311 311 312 311 311 309 310 311 311 312 312 312 311 311 311 311 312 310 310 310 310 310 309 310 311 312 312 311 311 311 311 311 311 311 312 312 313 314 314 315 316 316 317 317 318 319 320 321 321 321 321 322 322 322 321 322 322 322 323 323 323 325 327 327 326 325 325 328 336 312 310 317 323 319 313 311 311 312 314 329
307 310 309 309 308 306 308 311 312 312 313 311 310 311 311 311 311 312 312 312 311 312 312 312 312 312 311 310 310 309 310 310 310 310 311 311 311 311 311 311 311 311 311 312 313 313 314 315 315 316 316 317 318 318 320 320 321 321 321 320 320 320 321 322 323 324 324 325 326 327 328 328 329 329 328 328 333 319 310 311 312 309 307 306 304 306 307
306 311 310 311 312 312 312 313 314 314 314 313 311 311 311 310 311 312 311 312 312 313 311 311 311 311 311 310 310 310 310 310 311 310 310 310 310 310 310 310 310 311 311 311 312 312 313 314 314 315 315 316 317 317 318 318 319 319 319 320 319 320 321 321 321 322 322 323 323 324 325 327 328 329 328 328 328 330 343 310 306 305 304 303 301 301 302
310 309 310 312 313 312 314 312 312 313 313 313 312 312 312 313 312 311 311 311 311 312 311 310 310 310 311 310 310 310 310 310 310 309 309 309 309 309 308 309 310 310 311 311 311 311 312 313 313 313 313 314 316 317 316 317 317 318 318 318 319 319 320 321 322 323 323 324 325 326 327 327 329 328 328 329 329 330 329 332 334 325 308 302 301 303 302
311 312 310 308 308 309 311 309 309 313 313 314 313 312 312 312 312 312 312 312 312 312 312 311 311 310 310 310 310 310 309 309 309 308 309 309 308 308 309 310 310 311 311 311 311 312 312 312 312 312 313 314 316 317 317 317 317 317 317 317 318 320 321 322 321 321 322 323 324 326 325 326 326 327 328 329 330 330 330 331 331 331 333 339 319 306 328
311 312 311 304 304 307 310 312 313 314 314 312 312 311 311 312 311 310 310 310 310 311 311 311 311 309 309 310 309 308 308 309 308 309 308 308 309 308 309 310 311 311 310 310 311 312 313 313 312 312 313 315 316 317 316 316 316 317 317 317 317 318 318 319 320 321 321 321 322 322 322 322 324 324 326 327 328 328 327 329 329 330 331 333 337 326 314
310 311 312 311 311 311 312 312 312 311 311 312 312 312 311 310 309 309 308 309 310 310 309 310 310 309 309 309 309 308 308 308 307 307 308 308 309 309 309 310 310 310 310 311 311 312 312 312 312 312 313 315 316 316 316 316 316 315 315 315 315 316 317 318 319 320 321 321 322 323 323 323 324 325 326 327 327 328 329 329 329 330 330 334 336 337 332
309 310 310 309 311 313 312 311 310 310 311 312 312 311 312 310 307 307 308 309 309 308 309 310 310 309 309 308 309 308 308 307 307 307 307 308 308 310 310 311 310 310 310 310 310 312 312 312 312 312 313 315 316 317 317 317 316 316 316 316 315 315 316 317 318 317 318 320 321 321 322 324 324 324 324 325 325 325 327 327 328 329 331 332 329 333 334
311 311 310 310 309 311 312 311 311 310 311 312 312 311 311 311 308 307 308 309 309 308 308 308 309 308 308 308 309 309 308 308 307 307 307 309 309 310 310 310 307 307 307 308 310 310 310 311 312 312 314 316 317 318 317 316 316 316 316 316 315 314 314 314 315 316 316 317 319 320 322 322 323 324 323 323 325 325 327 329 330 330 331 332 333 333 334
310 310 309 309 308 308 309 310 309 310 310 311 310 309 310 309 306 307 308 307 308 308 308 308 307 307 307 308 308 307 307 307 308 308 308 308 309 309 310 309 309 309 308 309 309 310 310 310 311 313 315 316 316 317 316 316 316 315 314 315 315 315 314 314 315 315 315 316 316 317 318 319 319 321 322 322 323 323 326 327 328 329 330 330 332 335 336
309 309 307 304 304 306 308 310 309 308 308 307 308 309 309 309 309 308 307 308 307 307 307 307 307 307 308 307 307 306 306 307 307 307 307 308 308 309 309 309 309 309 309 309 309 309 309 309 311 312 313 314 315 316 316 316 316 315 314 314 314 313 315 314 314 315 316 317 318 318 320 320 320 320 320 321 322 323 325 326 327 327 328 329 331 334 333
308 308 309 310 308 306 306 308 309 308 308 308 305 306 307 309 308 308 308 308 307 307 306 306 307 307 306 306 307 307 307 305 305 305 306 307 307 307 307 307 307 308 308 308 308 308 309 310 311 311 312 313 314 315 315 316 315 315 315 315 315 314 314 314 314 315 315 316 318 320 321 322 321 321 322 322 323 324 324 325 325 327 326 327 329 330 324
312 312 312 312 313 312 310 307 308 307 307 306 306 306 308 310 308 308 308 308 307 306 308 307 307 306 306 306 306 305 305 304 304 304 305 305 305 305 305 305 306 306 307 307 309 309 311 310 311 311 311 312 312 313 314 314 315 316 317 316 315 315 315 315 316 316 316 318 319 320 320 320 321 322 322 322 323 324 324 325 326 325 325 326 327 330 329
309 312 311 313 313 312 309 308 308 309 308 307 306 306 308 309 308 307 307 307 307 307 307 306 306 306 305 305 305 304 304 304 304 304 304 304 304 304 304 303 303 303 304 305 308 309 309 308 310 311 311 311 311 313 314 315 315 315 317 317 318 317 316 316 316 317 317 318 319 319 320 321 321 322 322 324 324 324 325 325 324 325 324 325 326 327 329
306 308 312 312 312 310 309 309 309 310 309 308 308 307 307 307 307 308 309 308 307 307 307 306 306 305 305 305 305 305 305 304 304 303 303 303 303 303 302 302 303 303 303 302 305 307 307 307 309 310 309 309 310 311 313 313 314 314 315 314 315 316 316 317 319 318 317 317 317 318 319 321 321 321 321 322 322 322 322 322 322 323 323 324 325 325 326
306 306 311 312 311 311 309 308 310 309 309 308 309 309 307 307 308 308 308 308 307 307 307 307 305 306 306 306 305 304 304 304 303 303 303 303 303 302 301 301 301 302 301 302 305 305 305 306 308 308 307 307 308 309 310 311 313 312 312 312 312 313 314 316 316 317 317 318 319 318 316 318 319 320 321 321 322 322 322 322 321 322 323 323 324 324 324
306 306 310 312 313 311 310 310 310 309 309 308 307 307 308 308 308 308 307 307 307 308 306 306 306 305 304 303 303 303 303 303 302 302 302 302 302 302 301 301 302 303 303 305 305 305 305 307 307 306 306 307 308 308 309 311 312 310 310 311 312 312 312 313 313 315 315 316 317 317 317 316 319 320 320 320 321 321 320 320 321 321 321 321 321 321 322
305 305 306 310 310 311 310 309 309 308 308 309 307 306 307 307 307 307 306 306 307 307 306 305 304 303 303 302 302 302 302 302 302 302 302 302 302 301 301 302 304 304 305 304 305 304 305 306 305 305 305 305 305 306 308 309 310 309 309 309 309 310 311 312 312 313 314 316 315 316 317 317 317 317 318 319 319 318 318 318 318 319 319 319 319 319 319
305 305 306 306 309 310 310 309 309 309 308 308 308 308 308 307 307 306 305 305 306 306 306 305 303 303 302 302 302 302 302 302 302 302 302 302 301 300 299 299 302 304 304 304 305 304 305 304 304 303 304 304 304 306 306 308 307 306 306 306 307 308 309 310 311 311 312 313 314 314 314 315 315 315 316 316 316 316 316 316 316 316 316 315 315 315 314
304 305 306 307 310 309 308 306 308 308 307 308 308 308 307 307 306 306 307 307 306 305 305 305 302 303 303 302 302 302 302 302 302 302 302 301 300 300 298 299 302 303 304 305 305 304 303 303 303 304 302 302 304 306 306 306 305 305 306 306 307 309 309 310 310 310 311 312 312 312 312 313 312 313 313 313 314 314 314 314 313 313 313 312 311 310 310
304 304 305 306 306 308 308 309 308 306 306 306 307 307 307 307 307 307 306 306 305 304 303 304 303 302 302 302 301 301 301 301 302 301 301 302 303 303 302 302 302 303 304 305 304 302 302 301 301 302 303 303 303 304 305 305 305 304 304 305 306 307 308 308 308 309 310 310 309 310 311 311 311 311 311 312 312 312 311 311 310 309 309 309 308 307 307
304 304 306 306 307 308 308 308 308 307 306 307 307 307 307 307 307 306 305 305 304 304 304 303 302 302 301 302 301 300 300 301 301 301 300 300 301 303 305 303 303 303 303 303 302 301 301 301 301 301 303 302 302 303 303 304 303 303 303 303 304 305 305 306 307 308 307 308 308 308 309 309 309 309 309 308 308 308 308 308 307 307 306 306 305 305 304
306 307 307 307 308 309 308 308 306 306 306 307 306 306 306 306 306 306 305 304 303 303 303 302 302 302 302 301 301 301 301 302 303 301 299 299 298 299 303 304 303 303 303 303 302 301 301 301 301 301 301 300 301 302 301 301 302 302 302 302 303 304 305 304 305 305 306 306 306 306 307 306 307 307 306 306 306 306 306 305 305 305 304 303 303 303 302
305 306 307 305 307 308 308 309 309 308 306 306 304 305 306 306 305 305 304 304 303 303 304 304 303 303 303 302 302 302 302 303 303 303 303 302 300 301 303 303 303 303 302 302 302 301 301 302 301 300 300 300 300 299 299 300 301 300 300 300 300 301 301 301 302 303 304 304 304 304 304 304 304 304 304 304 304 304 303 303 303 303 302 302 302 301 301
304 304 306 307 307 307 309 308 308 307 304 303 302 302 304 305 305 304 304 304 304 304 304 304 304 304 304 303 302 301 300 300 302 303 303 303 303 302 302 302 302 302 302 301 301 301 301 300 300 299 299 299 299 298 298 298 299 299 299 299 299 298 299 299 299 299 301 301 302 302 302 302 302 302 303 302 302 302 302 302 301 301 301 301 301 301 300
303 303 304 305 303 305 306 304 304 304 303 303 303 303 304 304 304 304 304 304 304 304 304 304 304 304 304 304 305 304 303 302 299 300 303 303 303 303 303 303 302 302 301 301 300 300 300 300 299 299 299 299 298 298 297 297 298 298 298 297 297 297 297 296 297 297 297 298 299 299 299 299 300 301 302 301 301 301 301 301 300 300 300 300 299 299 299
305 305 307 307 305 306 304 303 303 303 302 304 304 304 304 304 304 304 303 304 303 303 302 303 303 304 305 304 304 304 304 304 302 300 303 303 302 301 301 302 302 301 301 301 300 300 301 299 299 299 299 298 298 297 297 297 296 297 297 296 297 297 296 296 296 296 296 296 296 297 297 297 297 298 298 299 300 300 300 299 299 299 299 299 299 299 298
305 306 303 301 301 303 303 303 303 302 303 304 304 304 304 304 302 302 303 303 302 302 303 302 303 304 304 304 304 305 305 304 305 304 304 304 303 303 301 302 302 301 301 300 300 299 300 300 299 299 299 298 298 297 297 296 296 296 296 296 296 295 295 296 295 294 295 295 294 295 295 295 295 296 297 297 297 298 298 298 298 297 297 297 298 297 297
301 302 303 304 303 303 304 304 303 305 306 305 305 304 304 303 303 303 303 302 302 301 301 301 302 302 303 303 304 304 304 304 305 303 303 303 303 302 301 301 301 301 301 300 300 299 299 298 298 298 298 297 297 297 297 296 296 296 295 295 295 295 295 294 294 294 294 294 293 293 293 293 293 294 294 295 295 295 295 296 296 296 296 296 296 296 296
303 305 306 303 303 303 304 304 306 306 307 306 305 305 304 304 304 302 303 303 302 301 301 300 300 302 303 303 303 303 304 304 304 303 303 303 302 301 301 301 301 300 300 299 299 299 299 298 299 298 298 297 297 297 296 296 296 296 296 296 294 294 294 294 293 293 293 293 292 292 292 292 292 292 293 293 293 293 294 294 294 294 295 295 295 295 295
Wind_Speed
2 3 5 6 3 4 1 2 2 5 3 7 13 15 6 7 10 3 14 14 16 15 14 12 11 9 8 8 8 8 10 11 9 10 11 12 12 12 13 13 13 13 14 13 13 14 13 14 14 13 12 11 11 9 9 9 9 10 10 8 9 6 9 10 8 8 9 10 11 11 11 10 11 12 12 11 10 10 10 12 12 13 14 14 14 13 13
3 2 3 2 4 3 6 6 3 3 6 2 4 4 7 9 7 15 17 15 15 13 15 12 11 10 10 9 7 7 9 8 9 10 11 12 12 12 12 12 12 12 13 13 12 12 13 13 13 13 12 12 11 11 9 8 9 9 9 10 8 7 6 6 8 9 7 7 7 9 9 10 9 10 11 11 11 11 11 12 10 10 11 12 13 14 14
4 3 4 7 5 4 6 5 5 4 4 3 3 2 1 1 12 16 19 18 14 9 12 13 11 9 9 9 8 9 7 8 9 9 10 11 11 11 11 11 12 12 12 12 11 12 12 12 12 11 10 10 10 11 9 8 8 8 9 9 9 9 7 7 11 12 12 9 7 7 6 8 9 9 10 10 11 10 10 11 10 9 10 12 13 13 14
5 4 5 3 6 6 7 5 7 6 5 7 5 6 2 8 10 12 17 13 12 12 12 12 11 11 10 9 9 8 7 8 8 9 10 10 10 11 11 11 11 11 11 12 12 12 11 10 10 9 9 9 9 9 8 8 7 7 7 9 10 10 8 5 8 8 4 5 10 11 10 9 7 9 9 10 10 11 12 13 11 13 14 13 11 13 12
5 7 2 3 5 7 9 10 7 6 1 4 4 5 2 3 14 13 9 9 13 13 12 12 12 11 10 11 9 7 7 7 8 9 9 9 9 10 9 10 11 10 11 11 11 10 10 9 8 9 8 9 9 9 9 8 7 7 8 8 9 10 11 9 7 6 5 5 5 7 9 8 7 9 9 10 12 12 14 13 12 12 11 13 13 13 13
6 7 4 3 7 10 5 7 6 1 4 4 4 5 4 9 8 4 4 12 14 14 13 12 12 11 9 7 5 8 6 6 6 7 8 8 8 8 9 9 10 9 9 9 9 10 9 8 9 9 9 8 7 7 8 8 8 7 7 8 7 8 9 9 6 5 7 9 8 6 7 8 8 7 7 10 9 11 10 12 11 11 13 13 12 12 12
6 6 5 7 9 5 7 3 4 3 5 1 2 8 5 6 9 12 16 17 15 13 12 11 10 8 9 9 8 5 5 5 5 6 7 7 7 7 8 9 9 9 9 9 9 9 9 9 9 9 9 8 7 8 8 9 9 8 7 7 7 7 8 7 7 9 9 8 9 9 7 5 7 10 10 8 8 8 8 9 11 11 11 12 12 12 13
1 3 7 6 4 7 3 4 2 4 2 4 6 6 4 4 9 14 13 15 15 13 13 12 9 9 9 8 6 6 7 4 5 5 6 6 7 8 8 8 7 8 9 10 10 9 8 8 8 9 10 10 9 8 8 8 8 8 8 8 8 6 4 4 4 6 8 9 10 8 5 2 7 8 7 4 5 5 9 11 8 7 11 12 12 13 14
7 6 7 5 8 8 5 5 4 5 5 6 6 5 8 5 1 9 12 12 11 11 11 9 9 9 10 7 8 10 8 7 6 4 6 6 5 6 7 8 7 6 8 9 9 8 8 8 8 9 7 9 9 8 9 8 6 8 8 8 9 8 8 7 7 6 7 8 8 9 7 5 7 7 7 7 6 5 6 9 9 10 10 12 11 13 14
6 7 5 6 7 6 9 6 8 2 3 3 2 4 8 6 3 7 11 10 10 11 9 9 9 5 7 8 8 8 8 7 6 6 4 4 4 5 6 6 6 6 8 9 8 8 8 7 9 9 8 8 7 7 9 9 7 6 7 8 9 9 8 9 9 7 6 7 8 9 10 8 8 8 7 5 5 5 7 8 9 10 10 11 12 13 14
5 7 7 5 5 1 9 10 8 5 2 1 2 5 7 8 8 6 10 10 9 9 10 9 7 7 9 6 9 5 5 4 4 3 4 3 4 4 4 6 7 8 9 9 8 7 8 8 9 9 8 8 8 8 8 9 9 8 8 9 9 8 8 9 9 9 8 7 7 8 10 9 5 7 7 7 7 6 8 9 10 11 12 12 13 12 13
6 7 6 5 5 4 6 9 6 6 2 3 6 8 6 11 9 10 10 10 9 8 8 6 7 8 5 9 6 6 4 3 4 3 4 4 4 5 5 5 7 8 7 7 8 9 9 9 9 9 8 7 8 7 8 8 8 9 9 9 9 9 9 8 8 9 9 10 9 9 9 10 8 4 6 8 8 9 10 9 11 12 13 13 13 12 14
7 7 7 7 5 7 10 9 7 7 3 3 7 6 9 9 10 3 6 6 9 6 6 5 6 6 6 5 4 2 4 2 4 4 4 5 5 6 6 7 7 6 6 6 7 8 7 8 9 8 7 8 8 7 8 8 7 8 8 8 8 9 9 9 9 8 8 8 10 10 9 9 9 9 5 7 8 8 8 10 13 13 15 14 13 13 14
8 5 7 8 3 7 9 7 6 7 6 6 3 7 4 4 7 4 3 3 6 6 6 5 4 2 3 1 2 3 3 4 3 3 4 5 6 6 7 7 6 6 6 6 7 7 7 8 8 8 8 8 8 8 8 7 8 8 8 8 8 9 9 9 9 8 7 7 7 8 9 8 9 9 8 9 8 5 6 9 12 14 13 12 14 14 13
7 6 7 5 7 7 6 10 7 4 8 4 6 7 7 5 8 5 5 3 6 4 5 4 3 4 3 4 4 4 3 3 3 4 4 4 5 6 7 7 7 8 8 8 8 8 8 8 8 7 8 9 8 8 8 9 9 8 8 9 9 9 9 9 9 9 7 7 6 5 6 9 10 10 10 10 10 10 9 11 12 14 14 13 12 12 10
5 5 5 3 4 9 8 7 2 8 1 6 6 7 7 5 6 4 6 4 3 3 2 0 0 2 3 4 3 4 4 4 4 3 4 4 4 5 6 7 7 9 8 8 9 9 9 8 7 7 7 7 8 8 10 8 8 8 8 9 9 9 9 9 10 9 9 8 7 7 6 6 8 10 10 10 10 10 10 10 11 12 11 10 10 11 11
5 4 3 4 5 7 7 4 5 4 8 5 4 1 4 6 5 2 3 5 5 2 1 1 2 2 2 3 4 5 6 5 5 5 5 5 5 5 6 7 8 8 9 10 10 10 9 9 8 8 8 8 9 9 8 8 8 8 9 9 9 9 9 9 10 10 9 8 8 8 8 7 7 8 9 10 10 10 10 10 10 10 10 9 8 10 11
6 7 3 1 3 4 7 4 3 5 6 5 4 4 4 3 3 5 1 5 4 4 3 3 3 3 0 1 2 4 4 6 6 6 6 6 6 6 6 6 8 10 10 11 11 11 10 10 9 9 9 9 11 10 9 8 8 9 9 9 9 9 10 10 10 10 11 11 10 9 9 8 8 7 9 10 10 10 10 10 10 10 9 8 8 9 8
1 3 7 11 7 5 5 6 6 3 3 4 4 6 4 4 5 5 4 3 4 3 3 3 2 1 1 2 2 2 4 5 5 6 7 6 6 6 6 7 7 8 10 11 12 12 13 12 10 10 10 9 10 10 10 10 10 9 9 10 10 10 10 9 9 9 10 10 10 10 10 10 10 9 9 9 9 9 10 10 9 9 9 9 9 8 8
8 5 2 2 3 5 6 7 7 8 7 6 6 4 5 4 5 5 5 4 4 4 5 4 4 3 2 2 2 3 3 4 5 6 6 7 7 7 7 7 7 7 8 10 12 13 13 12 11 11 11 11 11 11 11 11 11 10 10 10 10 10 11 10 10 10 10 12 13 11 11 10 9 8 8 8 9 9 9 9 9 9 9 9 9 8 8
9 10 7 5 5 7 8 9 9 7 7 8 8 8 7 6 7 7 6 5 4 5 3 4 4 3 2 3 2 3 3 4 4 5 6 7 8 9 9 9 9 8 8 9 10 12 13 12 12 12 11 11 11 11 10 11 11 10 10 11 11 12 11 10 10 9 10 10 10 10 10 9 8 7 8 9 10 10 11 10 9 9 10 11 11 9 7
8 7 2 6 10 8 9 11 11 10 9 8 8 8 8 7 8 7 7 7 5 4 4 4 4 3 3 2 2 3 3 4 5 6 7 8 9 10 10 9 10 11 11 10 10 11 11 11 12 12 13 12 11 11 10 10 10 11 11 11 12 11 11 10 10 10 10 10 10 9 9 9 9 9 10 11 10 10 12 11 12 15 12 12 12 11 13
7 3 8 7 6 6 6 3 3 8 9 10 11 11 11 10 9 8 8 8 7 6 4 3 2 2 2 2 2 5 4 4 5 6 8 8 9 9 11 12 12 12 12 12 12 12 11 11 11 11 12 12 12 12 11 11 11 11 12 11 11 11 11 10 10 10 10 11 10 10 10 11 12 12 12 9 11 15 15 15 16 17 18 19 19 16 10
11 10 8 8 7 7 7 9 6 5 6 8 10 10 10 9 9 10 9 8 7 6 5 6 6 5 5 6 5 6 6 6 6 7 7 8 9 10 10 11 13 14 14 14 13 12 11 11 11 11 12 12 12 13 12 12 11 12 12 11 11 11 11 11 11 11 10 10 10 10 10 10 10 11 12 12 11 11 17 18 18 19 18 16 14 14 15
10 8 9 10 9 8 8 10 9 8 8 9 9 9 10 10 10 10 10 9 7 7 6 4 4 4 4 5 6 6 6 7 7 7 8 8 9 10 11 12 12 12 12 12 12 12 12 12 12 12 13 13 13 13 13 13 13 13 13 13 13 13 12 12 12 12 12 11 11 11 12 11 11 11 11 11 12 11 8 12 15 14 13 13 14 14 13
11 11 12 13 13 11 9 9 11 10 10 10 10 10 9 9 10 10 10 9 8 8 8 6 6 7 7 6 5 6 7 8 7 7 8 8 9 10 10 11 12 12 12 13 13 14 14 15 15 15 14 14 13 13 13 13 14 14 14 14 14 13 12 13 13 13 12 12 12 11 11 11 11 11 11 12 12 13 13 12 10 9 12 14 14 13 13
9 10 10 11 13 14 12 12 10 11 13 12 11 10 10 10 8 8 9 10 9 7 6 7 5 4 5 7 7 7 7 8 8 8 8 9 11 10 10 11 12 13 14 14 14 14 16 16 15 15 15 15 14 14 14 15 15 15 16 15 14 16 22 19 14 14 13 13 12 12 12 12 12 12 12 12 12 13 12 12 12 11 12 8 8 13 11
11 10 9 12 12 11 11 12 13 13 13 12 11 12 11 10 9 10 12 11 9 9 7 5 9 10 5 5 7 8 7 8 8 8 9 10 10 11 11 12 12 13 12 12 13 13 14 14 15 15 15 15 15 16 16 16 16 16 16 17 16 14 13 15 14 14 13 14 14 13 13 12 12 12 12 12 12 12 12 13 12 12 12 11 10 7 11
9 8 10 12 13 11 9 8 8 10 12 11 10 11 12 14 12 12 12 11 10 8 8 7 5 8 8 6 5 7 8 8 8 9 10 10 10 11 11 12 12 12 12 13 13 13 13 13 14 15 15 15 16 17 16 16 15 16 16 16 15 14 13 13 13 13 13 13 13 13 13 13 12 12 12 12 12 12 12 12 13 12 12 11 11 11 9
9 7 7 10 13 12 11 10 11 10 10 10 12 12 14 14 13 12 11 11 10 10 8 8 10 6 4 6 7 7 8 9 9 9 10 10 11 10 11 11 12 12 12 12 11 12 12 13 14 15 15 15 16 16 16 15 14 14 15 16 16 15 14 14 14 14 14 13 13 15 13 13 13 13 13 13 13 13 13 13 13 12 12 12 11 12 11
7 7 10 7 10 12 11 12 10 10 12 11 11 12 13 12 12 11 11 10 8 8 8 8 5 5 5 7 7 7 7 8 9 10 10 10 10 11 11 11 10 11 11 12 12 13 13 13 14 14 14 14 15 16 15 14 14 15 14 13 15 17 17 16 16 15 15 15 15 15 13 13 13 13 13 13 12 12 12 12 12 12 12 11 11 11 10
8 8 7 8 10 11 9 8 9 9 8 8 10 11 12 12 12 10 9 9 8 8 8 6 5 6 6 6 6 7 8 9 10 10 10 10 10 10 10 11 11 12 12 12 12 12 13 13 13 13 14 14 14 15 15 14 12 12 13 13 13 14 14 16 14 15 15 16 16 16 15 15 14 14 14 14 13 13 13 13 13 12 12 12 11 10 9
9 8 4 1 6 10 10 8 8 9 8 7 5 3 2 4 4 3 6 7 9 8 5 3 4 5 5 5 7 8 9 9 10 10 10 10 9 10 10 10 11 12 12 11 12 12 13 13 12 13 13 13 14 14 14 14 13 13 13 13 12 13 14 15 16 15 15 15 15 15 15 15 14 15 15 15 14 14 13 14 13 13 12 12 11 10 9
7 8 7 5 4 5 9 8 9 9 8 5 3 2 3 6 7 7 9 9 6 5 4 3 3 4 5 6 7 8 8 8 8 8 9 10 10 10 10 11 11 12 12 13 12 11 11 11 11 12 12 13 14 14 14 14 12 11 12 13 14 14 15 14 15 15 15 16 15 15 15 15 15 14 14 13 13 13 13 13 12 12 13 13 12 11 10
6 7 7 6 6 7 8 9 8 7 10 9 8 9 7 7 9 8 2 4 4 1 0 1 2 5 6 6 7 7 7 7 8 8 9 9 10 10 11 11 11 12 12 11 11 11 12 12 11 11 12 14 14 14 14 14 13 12 12 13 15 15 15 15 14 14 14 13 13 14 15 15 15 15 15 14 14 13 12 12 12 13 12 13 13 12 12
8 7 7 5 4 3 4 6 10 12 10 9 10 10 10 11 11 6 6 4 3 3 2 2 3 4 5 6 6 6 6 8 7 8 8 9 10 10 10 11 11 11 11 11 11 10 11 11 14 17 14 14 14 14 13 13 13 13 11 11 10 11 13 14 14 14 14 14 14 13 13 14 15 14 14 13 12 13 13 12 12 11 12 13 13 13 12
11 8 7 5 4 2 1 4 3 2 8 9 9 10 11 10 7 5 5 4 4 3 3 3 4 5 5 4 5 5 6 6 6 7 8 8 9 9 10 11 11 11 10 11 10 11 12 11 16 22 16 12 13 14 14 18 13 12 12 12 12 11 10 11 10 9 10 11 13 15 15 13 13 13 13 13 14 13 13 12 11 11 11 12 13 14 12
12 10 7 5 3 1 1 1 2 6 7 10 9 10 7 5 6 5 4 4 3 3 2 3 3 3 4 4 5 6 6 5 7 8 8 9 9 9 9 8 9 9 10 9 10 11 11 14 19 15 13 12 12 13 15 19 19 15 12 12 12 12 11 10 10 10 9 9 9 9 13 14 12 12 12 13 13 13 12 11 11 11 11 12 13 12 13
11 10 7 5 4 4 2 1 4 7 10 11 9 7 6 6 6 5 5 4 2 2 1 1 1 3 3 4 5 5 5 6 7 7 8 8 8 9 9 8 8 8 9 12 13 12 12 13 14 13 12 12 13 13 16 19 20 13 12 12 13 12 12 12 12 11 11 10 11 10 10 12 12 10 10 10 11 11 10 10 9 10 11 11 12 12 12
10 9 9 8 7 5 6 5 7 9 9 8 7 8 7 7 6 6 4 3 3 2 1 1 2 2 3 4 4 4 5 5 6 7 7 8 8 8 8 7 9 10 12 15 13 12 15 20 16 11 11 11 12 12 12 16 17 13 12 12 12 12 12 12 12 12 11 9 10 11 10 10 11 12 10 10 9 10 10 9 9 9 8 9 11 11 10
10 10 9 8 8 8 8 7 8 8 7 7 7 7 7 6 6 5 5 5 4 3 1 1 2 1 3 3 4 4 4 4 5 6 6 7 7 7 8 8 10 11 12 13 13 13 13 13 12 11 11 11 11 14 13 17 15 12 12 12 12 12 12 12 11 11 11 11 10 9 9 10 9 10 9 9 8 9 9 11 11 10 10 10 10 10 10
11 11 9 9 3 4 3 1 2 4 7 7 7 8 8 7 6 5 5 5 4 3 2 3 4 3 3 3 3 3 3 4 5 6 6 7 7 7 8 8 10 9 15 16 15 13 11 10 10 11 11 11 12 17 21 17 14 12 11 11 11 11 11 11 11 10 10 9 9 9 9 9 9 9 9 9 8 8 8 7 7 9 9 9 9 9 9
10 10 10 10 6 6 8 6 7 10 8 8 10 9 9 8 7 6 6 6 5 4 3 3 3 1 2 3 3 3 3 4 5 5 6 5 6 6 7 8 9 9 16 13 13 11 10 9 10 10 16 16 14 20 21 14 11 10 9 10 10 10 10 9 9 8 8 7 7 7 8 8 9 8 8 8 8 6 5 6 9 9 9 9 9 8 8
10 9 8 8 7 6 8 10 9 9 8 6 5 7 7 8 8 8 7 6 5 5 4 3 2 2 3 3 3 3 4 4 5 5 6 5 6 6 7 7 8 10 15 11 11 10 10 10 11 15 20 20 20 20 14 10 10 9 9 8 9 8 8 8 8 8 7 7 7 6 6 7 7 7 7 6 6 7 8 8 8 8 9 8 7 7 6
7 7 7 7 7 6 9 10 12 12 10 7 6 7 8 8 8 8 7 6 6 5 4 3 2 2 2 3 3 4 3 3 4 6 6 6 7 7 7 8 9 9 11 14 9 10 10 11 14 19 17 19 18 18 10 9 9 8 8 8 8 8 8 8 8 7 7 7 6 6 6 6 6 6 5 6 7 7 7 7 7 7 6 6 7 6 5
7 6 5 6 6 6 5 8 11 11 11 10 9 8 8 8 8 7 7 7 6 5 4 3 2 2 2 3 3 3 2 2 3 4 4 5 6 7 6 6 8 8 13 13 8 9 10 16 19 18 18 18 17 10 8 9 9 8 7 7 7 7 7 8 8 8 7 6 6 6 6 6 6 5 5 6 5 4 4 4 5 5 5 5 4 4 3
3 4 4 6 5 8 9 9 10 10 11 11 10 9 8 9 8 7 7 6 6 5 4 3 2 2 2 3 3 4 5 4 3 4 5 4 5 6 7 7 7 10 10 8 9 9 10 13 15 19 18 18 16 9 8 8 8 8 7 7 7 7 7 7 7 8 8 7 7 7 7 6 5 5 5 5 4 3 3 2 1 1 2 2 1 2 2
2 3 4 3 7 11 12 11 11 10 10 9 10 9 9 8 8 7 7 6 6 5 4 3 2 2 1 1 2 2 4 5 5 5 5 5 5 6 7 7 7 11 10 8 10 10 15 16 17 18 17 15 10 10 9 8 7 7 7 8 7 6 6 6 7 8 7 8 8 7 7 7 7 5 3 3 3 3 3 2 2 1 1 0 1 2 3
3 3 0 4 10 10 12 12 11 9 9 9 10 9 8 8 8 7 6 6 5 5 4 4 3 2 1 1 3 3 4 4 5 5 4 5 6 6 7 7 8 9 8 7 8 8 13 16 16 17 16 13 10 9 9 9 8 7 7 7 7 7 7 7 7 7 7 8 8 7 7 7 7 7 6 6 4 4 4 4 5 4 4 4 5 6 6
7 6 11 9 9 8 9 7 7 7 8 9 9 9 9 8 7 6 5 5 4 3 3 3 2 2 1 1 0 2 1 2 3 5 4 4 5 5 6 7 6 8 9 8 9 8 11 15 14 14 13 10 10 10 9 9 9 7 6 7 7 6 8 8 9 10 8 8 8 8 8 7 7 8 7 7 7 7 6 6 6 7 8 7 6 7 7
9 6 7 7 6 8 9 7 7 7 7 8 8 8 8 7 6 6 5 4 3 2 1 2 1 2 1 0 1 0 2 3 3 3 5 6 6 5 6 6 6 6 7 8 8 8 8 9 9 10 10 9 10 10 9 9 9 9 10 9 9 8 8 8 7 7 8 8 7 7 7 8 8 8 7 7 8 7 7 7 7 7 7 7 7 7 7
5 3 4 4 4 3 5 6 7 6 6 7 6 6 6 5 5 5 5 4 3 2 2 1 1 2 3 3 4 3 3 4 5 3 3 4 6 6 6 7 6 6 6 6 7 7 7 8 9 10 10 8 8 8 10 11 9 9 10 10 10 10 11 10 9 9 8 9 9 8 8 7 7 8 7 7 8 8 9 8 9 9 8 8 8 8 8
Wind_Direction
321 332 2 349 323 3 165 266 286 225 221 233 233 235 283 305 258 196 151 149 140 146 141 148 130 135 123 100 102 93 104 109 92 82 76 72 68 62 52 50 47 42 42 38 36 35 37 36 32 30 27 21 17 23 23 18 10 2 345 340 347 298 246 245 254 234 218 216 210 204 213 215 213 218 226 225 223 214 206 204 206 213 214 211 200 202 205
205 209 258 241 274 228 242 236 222 258 242 222 259 242 251 248 248 136 152 136 135 140 145 144 147 134 130 119 116 115 95 79 76 78 74 72 69 61 57 48 46 43 42 41 37 37 37 37 35 31 25 16 15 15 12 14 3 1 347 340 337 328 325 304 268 256 250 254 236 211 209 215 220 219 223 230 227 224 221 216 209 212 217 215 213 204 207
211 223 229 228 247 252 239 214 238 234 234 233 265 268 199 111 122 140 136 136 135 145 138 131 128 135 129 127 107 96 89 92 87 72 68 65 63 67 62 55 47 44 42 38 38 36 35 35 36 39 25 17 16 12 16 13 356 346 347 343 336 336 338 15 17 11 345 311 276 258 241 217 217 224 226 228 234 232 227 226 222 216 222 226 222 216 209
206 202 238 228 243 250 250 219 224 223 217 214 199 209 131 152 141 138 134 136 145 144 144 137 146 145 136 126 125 116 104 92 74 76 74 64 62 53 59 56 47 43 39 39 33 29 33 32 34 37 32 30 22 17 16 17 8 353 345 344 343 343 337 41 30 8 13 353 344 322 306 274 236 227 233 231 233 231 226 226 220 221 222 225 234 233 226
223 137 211 256 237 229 234 223 207 213 238 15 66 72 300 128 148 164 158 151 145 147 149 155 150 151 143 140 127 105 85 71 78 72 61 67 59 60 49 53 53 41 36 36 37 27 25 26 29 39 38 33 26 17 11 7 5 13 11 4 357 2 15 17 32 338 317 305 268 241 259 276 285 264 242 235 235 234 228 223 222 221 225 224 224 231 238
177 140 175 215 228 225 211 41 87 143 201 176 204 178 80 126 188 164 117 136 142 147 159 156 161 154 142 99 100 113 115 84 70 65 65 47 51 52 46 45 45 37 36 29 36 30 23 19 22 31 33 35 33 24 14 9 4 5 16 24 15 13 8 9 15 312 299 297 297 288 273 272 278 287 285 265 249 249 252 231 223 228 223 224 225 225 229
238 143 157 212 221 217 72 129 78 41 35 327 53 88 106 98 114 139 128 132 148 155 153 147 138 133 135 149 148 128 99 77 84 73 56 53 47 40 45 38 36 28 30 20 30 19 23 15 24 15 22 25 24 28 19 15 6 353 22 30 34 27 12 3 356 334 330 315 294 288 288 322 315 289 282 298 310 311 270 282 257 230 231 228 226 228 229
226 187 196 211 188 82 117 71 105 57 237 122 141 133 92 70 128 144 139 144 144 143 131 139 142 153 152 138 120 124 120 97 63 69 74 44 31 34 26 30 35 21 20 14 17 8 8 11 26 16 11 12 10 19 21 18 5 358 8 21 21 30 29 11 359 337 332 334 329 320 309 224 241 254 256 267 284 301 318 299 298 310 253 238 230 227 227
246 219 211 203 110 167 140 177 163 203 179 174 204 205 165 118 97 130 136 135 143 150 152 147 162 177 167 173 153 134 121 113 109 78 72 59 36 22 22 15 22 23 17 5 10 350 7 1 19 14 10 8 3 4 11 3 5 3 8 19 9 12 360 4 10 352 343 334 324 318 299 250 252 253 253 246 220 194 210 229 228 228 253 247 237 231 229
249 263 235 202 195 235 196 155 147 117 66 358 63 308 137 151 166 133 148 150 170 158 158 165 152 182 192 196 166 150 139 133 119 118 84 83 68 25 13 360 0 14 13 355 355 345 348 2 13 0 358 6 357 12 1 352 352 360 11 13 360 359 358 360 350 347 336 334 329 322 312 294 273 273 257 243 252 223 225 240 253 254 250 249 245 239 231
223 235 258 240 235 158 84 116 118 95 129 216 49 255 213 157 159 166 162 177 181 183 177 166 173 195 208 167 137 125 113 87 74 60 80 42 33 16 7 351 6 1 352 343 330 332 342 360 357 344 352 354 354 3 1 347 347 353 6 7 354 354 351 349 347 342 341 341 338 326 322 314 303 273 262 267 251 228 234 235 240 245 244 244 240 241 240
246 258 237 243 266 181 137 117 133 131 136 135 234 219 206 148 154 151 159 167 167 221 205 173 197 209 217 129 125 106 89 75 65 43 20 17 11 354 349 2 17 342 326 316 325 339 342 359 337 335 347 343 352 355 349 339 350 348 0 357 345 342 343 340 348 341 339 341 337 335 325 318 310 279 251 269 261 248 245 247 249 245 242 243 243 241 240
223 226 257 257 118 95 128 132 118 119 131 222 218 230 111 168 131 154 161 168 162 177 178 190 212 205 66 109 80 88 65 48 49 16 4 359 359 349 344 9 350 318 318 331 337 326 343 337 328 332 341 336 338 341 331 329 340 343 350 342 337 338 335 333 335 329 328 338 337 331 325 319 317 312 280 239 241 251 266 266 259 253 250 249 249 249 244
260 246 252 250 83 102 123 125 124 124 176 201 205 87 101 73 123 158 183 154 160 164 212 192 249 60 30 33 62 63 41 45 27 7 19 5 350 343 353 339 323 332 331 335 325 325 334 319 324 334 330 327 327 325 321 324 331 334 339 333 331 328 326 322 320 321 326 328 321 322 326 325 320 314 308 297 281 263 257 267 272 268 270 264 255 253 258
255 243 250 271 251 148 168 131 140 169 245 74 106 146 116 151 118 144 143 144 152 188 191 224 290 295 333 346 354 6 5 16 26 24 23 5 360 353 335 331 345 344 337 332 330 327 322 328 331 323 323 321 318 315 312 319 319 324 329 327 324 319 315 313 314 313 313 313 312 311 312 317 316 312 309 303 293 282 273 267 266 265 263 263 264 264 270
253 217 232 246 28 123 154 174 282 168 21 126 156 131 145 134 147 174 159 171 145 150 262 172 193 352 332 312 331 351 353 5 6 16 23 17 0 340 334 339 345 343 330 329 329 324 324 323 320 322 318 313 306 305 305 312 315 314 316 318 314 308 304 305 306 307 310 308 304 299 294 290 295 294 299 296 288 281 274 268 265 262 261 259 256 258 260
248 291 7 61 183 149 157 173 65 100 101 106 107 19 107 163 149 145 179 131 146 168 168 206 285 271 255 315 352 333 338 335 349 359 358 355 350 338 344 337 346 333 329 322 317 316 320 326 324 320 315 307 307 303 311 313 310 308 308 305 302 302 301 301 302 302 302 298 294 291 289 283 276 281 285 289 290 286 274 269 267 262 263 262 263 261 263
258 275 268 54 91 144 173 149 106 132 149 150 172 180 192 187 126 163 169 131 145 141 165 251 198 229 300 325 305 313 330 335 340 342 337 343 346 340 338 335 346 331 319 316 316 316 318 319 322 320 318 315 311 312 310 306 298 295 295 297 298 298 298 294 293 295 296 297 294 290 285 285 283 274 280 273 264 269 275 275 272 271 274 272 268 269 272
277 251 187 210 205 187 204 187 153 167 164 187 190 180 216 168 172 162 129 148 135 162 144 191 246 234 233 266 293 314 314 314 326 328 332 331 333 335 331 336 332 322 324 319 319 320 318 322 321 317 315 312 308 310 306 303 301 301 304 300 294 290 286 288 290 293 295 294 297 296 294 285 273 263 258 258 258 257 260 268 272 276 272 269 266 261 261
236 251 105 254 249 216 205 223 192 195 206 201 202 206 194 182 167 172 157 154 174 172 188 189 199 213 212 241 254 276 296 310 319 320 320 324 323 323 323 318 321 317 314 315 314 315 315 316 315 313 312 312 312 312 310 306 305 303 297 296 297 296 294 293 289 287 284 280 280 281 280 278 277 279 283 294 297 291 288 285 287 287 287 285 276 271 276
236 253 247 208 226 226 214 214 230 229 197 193 192 204 197 193 184 182 173 183 187 182 195 171 191 212 219 222 233 270 299 296 302 311 312 312 314 316 314 320 320 313 315 307 306 306 306 309 310 310 308 306 307 306 306 309 309 305 300 295 292 289 288 283 277 271 271 271 266 269 271 271 273 276 279 276 272 276 283 300 313 329 327 318 313 313 308
241 244 271 240 221 219 210 221 228 226 222 211 213 201 214 207 204 193 192 182 197 193 189 196 209 224 211 225 248 275 280 290 295 297 303 308 308 312 314 312 314 312 308 308 304 303 302 303 304 304 305 304 304 305 308 309 309 303 302 298 294 290 288 286 285 285 282 280 280 278 280 284 287 280 255 238 248 270 282 277 287 293 289 285 288 297 299
249 25 28 349 341 303 293 315 258 250 254 239 224 217 219 216 217 215 208 198 186 196 192 198 250 242 249 264 276 266 261 273 293 300 300 303 307 310 316 313 311 311 309 306 304 298 296 297 297 297 299 302 303 303 304 303 302 301 301 299 294 290 289 285 291 296 295 296 296 295 292 289 288 288 291 279 237 230 239 257 260 254 252 256 265 269 264
293 300 307 299 295 288 303 303 292 263 243 243 237 234 227 224 219 219 218 216 212 198 199 216 215 237 245 256 262 277 286 281 286 298 303 308 312 311 307 307 306 305 305 306 306 308 306 302 298 296 295 295 298 300 302 302 302 299 296 292 291 288 287 286 286 280 274 274 275 277 277 277 278 283 284 284 284 242 229 239 244 249 253 256 258 258 259
267 296 300 283 280 276 270 273 268 263 250 240 242 232 223 217 216 219 220 220 218 227 233 238 238 235 261 268 266 274 280 289 287 284 297 300 298 296 292 291 295 300 304 307 305 303 303 302 300 299 296 295 296 297 296 294 292 289 288 287 285 286 284 283 282 282 278 274 270 268 269 268 270 274 276 281 283 292 258 223 232 242 247 237 236 242 247
268 273 271 269 267 265 257 254 254 251 250 241 235 239 230 221 220 212 213 218 220 201 213 242 247 233 238 269 290 283 284 285 290 294 286 287 288 288 294 300 304 304 300 299 299 299 297 298 298 296 294 294 292 290 289 290 289 287 287 285 286 286 287 288 289 284 280 276 277 275 272 272 274 276 279 282 287 289 291 295 286 256 225 218 226 235 243
260 255 254 265 261 253 245 246 250 238 241 238 239 230 230 221 199 218 214 210 221 246 247 234 259 332 287 255 259 267 281 290 287 283 289 292 293 296 298 298 297 296 297 295 294 294 295 294 294 293 293 295 294 293 291 288 284 282 279 278 278 279 278 277 275 277 277 276 275 274 271 270 270 271 270 270 271 274 281 287 290 289 297 277 229 208 234
276 260 247 252 253 249 250 247 245 247 244 238 237 238 228 215 197 203 219 214 204 205 217 243 239 235 255 289 288 288 285 281 291 298 295 291 292 298 300 299 295 292 291 290 289 288 289 291 291 292 292 294 295 294 292 289 284 279 278 275 273 272 276 276 276 276 275 273 270 267 267 265 265 266 269 273 275 278 279 278 276 280 282 280 289 286 247
256 285 292 267 256 262 271 280 269 246 242 247 252 237 224 214 200 203 214 221 220 211 221 229 251 243 232 252 279 280 282 288 290 292 295 297 297 293 292 291 290 289 287 288 288 289 290 290 291 292 294 298 299 296 292 288 287 284 279 277 277 276 276 275 273 271 269 268 267 265 265 268 269 269 269 270 271 274 275 274 274 278 279 287 291 284 270
306 284 244 261 264 245 244 246 247 241 232 226 226 220 228 222 198 198 208 216 216 226 228 236 251 281 350 286 277 284 290 295 299 297 296 295 294 296 292 292 292 289 285 281 287 293 295 295 295 296 299 301 299 297 296 292 282 276 275 274 273 274 272 273 275 277 276 273 271 270 266 263 261 261 263 265 266 266 265 266 271 274 277 280 280 282 283
310 294 273 261 273 266 250 249 244 246 241 227 230 224 216 216 206 202 206 213 218 223 233 246 269 286 278 278 282 292 297 296 295 293 292 292 293 292 294 294 291 291 292 295 297 297 296 295 297 297 300 304 308 303 295 289 287 282 275 274 272 271 272 269 266 268 272 275 276 274 271 269 266 262 261 265 268 267 266 265 264 263 266 268 271 275 280
304 301 290 253 234 238 254 258 254 250 247 229 223 224 216 214 213 193 202 217 221 229 235 241 251 260 271 286 293 292 294 297 295 293 293 292 292 293 292 292 291 292 292 296 296 293 292 293 293 297 303 305 304 298 295 292 288 284 283 279 277 275 272 269 267 260 258 258 260 264 266 269 269 268 266 263 262 262 262 262 261 262 263 265 268 272 282
316 309 310 346 304 264 239 235 230 216 210 226 228 264 296 356 10 317 247 224 227 225 239 267 266 274 279 288 291 292 293 293 294 295 295 293 298 302 302 301 300 296 296 298 296 294 292 291 295 300 300 302 303 304 302 298 297 292 283 276 272 271 270 267 265 268 265 259 254 253 254 253 256 256 256 255 257 259 261 262 265 266 266 269 270 272 276
324 314 312 279 224 240 251 243 230 224 205 162 128 250 217 201 213 224 235 225 226 250 249 250 256 268 276 281 284 291 295 302 306 309 313 313 311 311 306 303 299 298 296 294 293 295 294 295 300 301 303 302 304 306 304 298 291 289 286 282 274 270 267 265 260 257 257 257 255 253 253 256 256 257 259 259 261 262 263 265 265 267 270 271 275 278 279
319 314 300 281 248 253 260 259 258 228 190 171 177 205 215 218 226 217 213 227 216 197 68 35 323 287 283 287 300 304 311 304 307 308 307 308 309 309 309 305 301 299 297 297 299 297 298 299 303 306 307 304 300 299 299 297 296 292 293 289 281 273 269 263 261 260 263 265 263 260 258 257 256 258 260 261 260 260 261 263 264 267 270 270 275 279 278
324 314 305 284 284 270 296 272 230 204 184 189 191 197 195 211 213 175 132 185 234 243 234 258 273 287 289 298 299 300 308 309 310 308 311 313 313 313 309 308 306 301 300 303 303 308 311 310 308 316 317 305 298 294 295 301 302 302 297 293 290 284 276 274 274 277 273 266 262 259 260 260 263 267 268 269 266 264 264 266 268 270 269 271 272 272 277
316 311 299 282 257 181 37 280 58 139 197 192 185 188 197 192 189 133 125 138 180 192 234 252 265 268 291 310 311 304 305 307 310 314 314 316 317 315 312 311 307 306 308 308 324 328 319 311 318 319 313 305 305 303 303 304 302 303 300 296 290 285 285 285 276 267 269 276 279 271 260 256 260 262 262 263 263 264 265 265 265 267 271 272 271 270 274
303 300 295 274 232 200 148 62 287 212 200 171 194 214 179 152 172 169 154 163 194 218 244 266 281 315 299 293 297 309 316 331 332 322 317 318 315 315 315 318 320 323 322 324 329 321 312 316 321 319 310 303 299 302 302 304 307 304 300 298 293 292 289 284 281 275 275 274 267 264 271 267 258 260 259 261 266 269 268 267 265 266 267 268 271 278 279
293 289 270 242 217 199 159 157 239 213 207 209 185 168 152 157 149 151 175 189 138 83 229 255 297 289 292 315 317 318 340 353 337 323 320 319 323 325 326 326 329 338 328 328 323 321 319 323 320 312 306 309 312 310 308 307 306 303 300 295 294 290 288 284 285 285 284 281 283 281 276 273 270 264 264 265 265 269 270 272 275 273 273 275 277 276 274
277 275 273 258 231 215 195 205 221 205 193 180 170 167 160 164 168 174 168 146 129 141 179 341 295 283 325 338 326 331 346 343 333 329 329 330 331 328 327 329 348 340 335 330 328 326 323 320 316 312 313 317 317 313 311 309 309 305 301 297 294 292 290 289 288 287 284 279 275 271 265 266 266 268 270 274 274 272 273 276 280 276 273 267 266 269 272
271 274 273 262 251 227 204 195 221 206 180 168 157 158 157 172 166 173 172 159 143 132 141 200 235 358 353 338 330 344 345 349 338 336 337 334 337 337 331 333 355 338 338 336 332 328 326 325 326 322 325 325 323 316 313 313 310 299 294 289 286 283 282 283 284 285 286 289 290 288 282 279 280 276 276 274 275 274 272 269 269 273 275 277 276 275 276
278 279 275 261 233 73 52 88 350 280 175 170 149 163 159 165 166 167 146 138 144 145 174 119 69 352 356 354 353 346 351 354 343 353 349 344 345 340 334 339 345 330 333 331 332 332 333 336 332 326 325 323 318 320 321 313 303 299 294 294 292 290 285 286 284 285 286 288 292 293 292 287 282 279 278 277 276 272 275 284 284 277 276 276 274 275 278
268 265 264 263 233 189 203 189 209 201 187 174 160 166 159 160 145 144 137 132 142 152 144 114 117 98 24 11 354 343 351 340 344 353 341 338 347 352 350 346 335 334 336 335 336 336 337 340 336 334 330 327 323 323 318 310 303 303 303 302 298 298 296 296 295 294 295 297 299 299 295 289 286 282 280 276 275 286 298 281 271 275 276 276 276 278 282
272 269 265 261 257 213 195 187 178 156 149 163 170 155 160 146 142 143 146 144 138 133 134 118 97 62 34 14 7 359 349 350 338 345 339 340 344 3 22 358 347 342 343 342 340 341 338 337 339 337 331 328 326 325 320 315 316 314 311 307 305 305 307 306 305 304 305 309 311 308 301 297 294 292 291 295 294 280 269 272 277 279 280 280 278 282 283
258 255 257 254 235 180 178 177 175 158 149 140 158 166 155 146 134 136 139 143 140 135 134 128 100 54 35 29 24 8 0 347 338 346 348 346 347 351 5 351 351 344 348 341 341 341 338 343 342 340 337 335 331 331 333 331 328 329 331 330 331 329 327 323 322 322 329 328 326 318 312 307 303 307 305 297 288 279 278 279 277 281 282 283 285 284 288
246 252 255 244 221 144 183 183 163 147 150 158 161 148 145 138 136 141 142 142 142 142 131 124 114 61 44 26 33 4 356 33 23 13 8 352 347 340 11 11 352 350 342 340 346 344 345 350 346 347 345 343 342 335 346 346 348 347 347 349 352 350 348 347 343 340 336 332 329 328 325 326 323 319 321 315 317 314 302 289 282 276 276 284 289 293 299
247 254 233 223 163 155 162 126 123 145 159 151 151 148 145 139 144 142 140 139 136 127 127 112 107 106 82 51 8 355 355 8 37 22 5 6 353 352 6 25 356 350 351 346 351 357 360 352 348 348 351 352 353 351 351 346 343 347 353 5 5 360 354 354 356 354 354 355 1 3 354 347 339 330 312 304 315 309 297 281 274 323 353 351 21 35 33
262 263 251 223 134 153 142 129 133 159 159 156 150 144 143 146 142 141 141 145 142 138 132 131 114 99 44 171 163 78 16 350 346 26 9 1 359 352 2 15 10 358 356 345 356 10 10 359 355 355 358 357 358 4 1 355 348 346 355 2 3 5 6 4 360 3 359 1 1 7 5 3 351 338 350 358 353 334 317 307 291 296 284 328 57 55 61
282 255 96 114 135 134 131 137 149 169 157 155 145 141 144 150 149 149 148 147 151 154 144 134 146 137 172 279 316 27 43 356 358 359 357 2 2 355 356 18 30 8 4 359 2 1 11 3 360 3 2 4 7 10 9 7 7 4 3 5 1 8 5 8 10 3 6 10 9 12 17 15 8 5 9 13 17 28 39 41 40 39 57 67 68 67 72
43 90 105 97 106 111 126 151 169 148 136 150 155 149 154 159 158 155 157 164 165 145 141 135 137 127 277 223 233 37 64 336 357 354 352 13 358 1 358 13 24 16 13 6 6 6 7 5 2 8 10 7 10 14 17 19 25 21 18 14 14 13 13 13 15 17 13 16 13 15 14 12 14 17 19 21 24 31 38 50 61 62 57 62 69 72 72
64 57 94 117 134 147 162 157 143 152 153 158 156 155 159 167 158 150 160 149 149 139 110 100 48 73 80 315 236 44 343 9 28 20 339 353 351 19 33 11 44 47 23 18 12 8 10 9 8 14 18 20 18 18 21 25 25 26 29 29 24 20 20 19 18 18 21 20 17 15 16 15 17 29 27 27 34 38 40 46 51 54 54 55 57 58 60
91 78 83 102 127 134 127 135 144 147 151 148 157 160 162 162 155 150 139 142 153 147 134 103 80 19 358 13 4 22 25 2 353 353 358 357 356 347 7 9 17 51 38 27 31 20 14 11 10 19 25 27 25 26 30 29 29 26 29 32 37 37 35 30 24 23 22 27 28 22 19 20 20 19 21 24 29 30 33 37 41 41 47 51 54 59 58